Вернуться в каталог

FENGYUN 1C DEB

АктивенPO
NORAD 31266·DEBRIS·🇨🇳 China

Запущен May 10, 1999 с Taiyuan Satellite Launch Center

Loading…

Ближайшие Пролёты (ближайшие 24 часа)

TLE

СвежийSource: Space-Track

Эпоха: Sep 14, 2026, 18:42 UTC

1 31266U 99025BMY 26257.77921523  .00000260  00000-0  12681-3 0  9990
2 31266  99.2764 260.0680 0129123 218.4060 317.5129 14.22662407 11079

Отслеживайте FENGYUN 1C DEB в реальном времени с AllMySat

Download on the App Store